User: anonymous   Login
Location: Unspecified
(0.0000°N, 0.0000°E)
Time: 06:10:57
(UTC+00:00)
Language:

TIANWANG 1B (TW-1B) - Orbit

View from above orbital plane
View from above orbital plane
View from above satellite
View from above satellite

Ground track
Ground track

The orbit data is extracted from the following two-line orbital elements,

1 40927U 15051C   19083.90925926  .00008391  00000-0  13918-3 0  9993
2 40927  97.1507 129.7810 0007988 353.0523 359.7831 15.52344998196691
Epoch (UTC): 24 March 2019 21:49:20
Eccentricity: 0.0007988
inclination: 97.1507°
perigee height: 404 km
apogee height: 415 km
right ascension of ascending node: 129.7810°
argument of perigee: 353.0523°
revolutions per day: 15.52344998
mean anomaly at epoch: 359.7831°
orbit number at epoch: 19669

The dashed part of the orbit path shows where the satellite is in the earth's shadow,  

DLR